Simultaneous Nadir Overpasses (SNOs) Predictions

Prediction of SNOs between GOES-17 and METOP-C Satellite Orbit:

Table of predicted SNOs for the next 14.0 days since TLE Epoch: 2/25/2023
Index Date Time (GOES-17) GOES-17 Lat,Lon METOP-C Lat,Lon Distance(km) Time Diff (sec)
1 02/26/2023 04:35:16 0.00,-104.68 -0.27,-105.80 127.59 80
2 02/27/2023 04:14:37 0.01,-104.68 0.85,-100.80 441.76 80
3 02/28/2023 16:30:48 -0.01,-104.71 0.15,-105.36 74.79 80
4 03/01/2023 16:12:49 -0.01,-104.71 -0.97,-100.37 494.56 80
5 03/03/2023 04:31:49 0.02,-104.69 -0.05,-104.97 31.77 80
6 03/05/2023 16:30:01 -0.01,-104.72 -0.07,-104.53 21.50 80
7 03/08/2023 04:25:41 0.01,-104.70 0.14,-104.13 65.69 80
8 03/09/2023 16:44:32 -0.01,-104.74 0.87,-108.69 450.53 80
9 03/10/2023 16:26:33 -0.01,-104.74 -0.26,-103.70 119.26 80
